Regional Weather Roundup
Issued by NWS

Home | Current Version | Previous Version | Text Only | Print | Product List | Glossary Off
Versions: 1 2 3 4 5 6 7 8 9 10 11 12 13 14 15 16 17 18 19 20 21 22 23 24 25 26 27 28 29 30 31 32 33 34 35 36 37 38 39 40 41 42 43 44 45 46 47 48 49 50

443
ASUS44 KJAN 221203
RWRMS

MISSISSIPPI HOURLY WEATHER ROUNDUP
NATIONAL WEATHER SERVICE JACKSON MS
700 AM CDT WED OCT 22 2014

NOTE: "FAIR: INDICATES FEW OR NO CLOUDS BELOW 12,000 FEET WITH NO
SIGNIFICANT WEATHER AND/OR OBSTRUCTIONS TO VISIBILITY.

MSZ001>002-007>008-010>013-018>021-025>028-034>036-221300-
NORTHWEST MISSISSIPPI

CITY           SKY/WX    TMP DP  RH WIND       PRES   REMARKS
CLARKSDALE     FAIR      48  48 100 N6        30.19R
CLEVELAND      FAIR      51  49  93 NE7       30.16R
GREENWOOD      CLEAR     52  48  86 E8        30.14R
6HR MIN TEMP:  49; 6HR MAX TEMP:  53;

GREENVILLE     CLEAR     49  46  90 NE6       30.15R
6HR MIN TEMP:  48; 6HR MAX TEMP:  56;

GRENADA          N/A    N/A N/A N/A MISG        N/A
OLIVE BRANCH   CLEAR     46  46 100 NE7       30.20R
OXFORD         FAIR      45  43  93 CALM      30.19R
TUNICA         SUNNY     46  45  93 N5        30.20R
$$

MSZ003>006-009-014>017-022>024-029>033-037>039-221300-
NORTHEAST MISSISSIPPI

CITY           SKY/WX    TMP DP  RH WIND       PRES   REMARKS
COLUMBUS AFB   CLEAR     47  45  95 VRB2      30.15R
6HR MIN TEMP:  46; 6HR MAX TEMP:  51; 6HR PCP: TRACE;

CORINTH        FAIR      43  41  93 CALM      30.19S
GOLDN TRIANGLE CLEAR     46  39  76 N5        30.14R
STARKVILLE     FAIR      48  46  93 CALM      30.14S
TUPELO         CLEAR     47  44  90 NE10      30.18R
6HR MIN TEMP:  45; 6HR MAX TEMP:  54;

$$

MSZ040-058-221300-
CENTRAL MISSISSIPPI

CITY           SKY/WX    TMP DP  RH WIND       PRES   REMARKS
JACKSON INTL   CLEAR     49  48  97 NE5       30.12R
6HR MIN TEMP:  46; 6HR MAX TEMP:  56;

JACKSON HAWKNS CLEAR     51  49  92 NE3       30.12R
6HR MIN TEMP:  51; 6HR MAX TEMP:  63;

MERIDIAN KEY   CLEAR     46  45  96 CALM      30.12R
6HR MIN TEMP:  46; 6HR MAX TEMP:  51;

MERIDIAN NAS   CLEAR     48  46  93 CALM      30.12R
6HR MIN TEMP:  47; 6HR MAX TEMP:  53;

RAYMOND        HAZE      46  41  81 CALM      30.12R VSB<1/4
VICKSBURG      CLEAR     47  45  93 CALM      30.12R
6HR MIN TEMP:  46; 6HR MAX TEMP:  61;

$$

MSZ059>079-221300-
SOUTH MISSISSIPPI

CITY           SKY/WX    TMP DP  RH WIND       PRES   REMARKS
BROOKHAVEN     FOG       50  50 100 CALM      30.12R VSB 1/2
HATTIESBURG    CLEAR     50  49  96 CALM      30.10R
6HR MIN TEMP:  49; 6HR MAX TEMP:  58;

MCCOMB         CLEAR     58  51  78 NE6       30.09R
6HR MIN TEMP:  56; 6HR MAX TEMP:  62;

NATCHEZ        CLEAR     50  46  87 NE3       30.11R
6HR MIN TEMP:  50; 6HR MAX TEMP:  55;

PINE BELT      CLEAR     54  48  82 N6        30.10R
6HR MIN TEMP:  54; 6HR MAX TEMP:  59;

$$

MSZ080>082-221300-
COASTAL MISSISSIPPI

CITY           SKY/WX    TMP DP  RH WIND       PRES   REMARKS
BAY ST LOUIS   CLEAR     57  52  82 N7        30.06
BILOXI         CLEAR     58  53  84 NE3       30.06R
6HR MIN TEMP:  57; 6HR MAX TEMP:  62;

PASCAGOULA     CLEAR     52  50  93 CALM      30.06R
6HR MIN TEMP:  49; 6HR MAX TEMP:  54;

GULFPORT       CLEAR     58  52  80 N7        30.05R
6HR MIN TEMP:  56; 6HR MAX TEMP:  59;

$$



USA.gov is the U.S. government's official web portal to all federal, state and local government web resources and services.